Tracking 18852 objects as of 24-Nov-2017
HD Live streaming from Space Station
objects crossing your sky now

OTS 2

Track OTS 2 now!
OTS 2 is classified as:


NORAD ID: 10855
Int'l Code: 1978-044A
Perigee: 36,058.6 km
Apogee: 36,170.2 km
Inclination: 14.0 °
Period: 1,452.5 minutes
Semi major axis: 42485 km
RCS: 1 m2 (large)
Launch date: May 11, 1978
Source: European Space Agency (ESA)
Launch site: AIR FORCE EASTERN TEST RANGE (AFETR)
aabbcc
Your satellite tracking list
Your tracking list is empty




NASA's NSSDC Master Catalog

Two Line Element Set (TLE):
1 10855U 78044A   17325.45327108 -.00000172 +00000-0 +00000-0 0  9991
2 10855 013.9781 333.6153 0013131 282.1917 262.4318 00.99138638172961
Source of the keplerian elements: AFSPC